To NAV CANADA Home Page Login to a new session Search on AWWS site Feedback and Comments Disclaimer Vers la page française équivalente Tips FAQ What's new on the site To the Forecasts and Observations / NOTAM section To "File a Flight Plan" website Publications and other links Update of the User's profile FIC Telephone Numbers My Weather Data Folder Route Weather Data Regional Weather Data Local Weather Data To the Forecasts and Observations / NOTAM section
Request Generated 03/05/2015 at 08:01:52 UTC . Weather information available at that time is displayed.

METAR/TAF

KITCHENER/WATERLOO/ON    (show WxCam)

METAR CYKF 050800Z AUTO 32008KT 9SM BKN240 M16/M20 A3019 RMK PRESFR
SLP244=
METAR CYKF 050700Z AUTO 33015KT 9SM BKN180 M15/M20 A3019 RMK PRESRR
SLP242=
METAR CYKF 050600Z AUTO 32014G23KT 9SM BKN190 M14/M20 A3016 RMK
PRESRR SLP232=

*** REMARK        : Forecast period has ended; this was the last TAF issued
*** REMARQUE : La période de prévision est échue; ceci était le dernier TAF qui a été émis
TAF CYKF 050138Z 0502/0505 29012KT P6SM SCT030 OVC190
BECMG 0502/0504 33012G22KT
RMK FCST BASED ON AUTO OBS. NXT FCST WILL BE ISSUED AT 051045Z=
Your time UTC time
Weather data provided by Environment Canada and NAV CANADA